CZ-6A DEB

Satellite information

Favourite Embed

Satellite Type and Status

DEBRISIN ORBIT

Key statistics

Satellite CZ-6A DEB at a glance.

Uptime

1024

Days in orbit

Revolutions

≈ 14.2

Per day

Orbit

SSO

Sun Synchronous Orbit

Inclination

98.8

Latest

Satellite identification and parameters

Extended collection of information and parameters for CZ-6A DEB.

Object identification

Identified? True

Debris? True

Object name: CZ-6A DEB

International designator: 2022-151ACH

Object number (NORAD): 56265

Object ID (CCSDS): 56265

Country: PEOPLES REPUBLIC OF CHINA (PRC)

Current information (Y/N): Y

RCS size: SMALL

Orbital parameters

Period: 101.739 minutes

Inclination: 98.8259 deg

SMA: 7219.117 km

Apoapsis: 871.616 km

Periapsis: 810.348 km

RAAN: 246.1864 deg

Eccentricy: 0.00424339

Argument of periapsis: 81.9166 deg

Mean anomaly: 278.6819 deg

Mean motion: 14.15391695 rev/day

Mean motion (dot): 0.00003082 rev/day2

B* drag term: 0.0015885389 1/REarth

Two-line elements (TLE)

Creation date: Aug. 31, 2025, 2:26 a.m.

Reference frame: TEME

Reference center: EARTH

Epoch: Aug. 30, 2025, 1:21 p.m. UTC

TLE line 0: 0 CZ-6A DEB

TLE line 1: 1 56265U 22151ACH 25242.55667224 .00003082 00000-0 15885-2 0 9999

TLE line 2: 2 56265 98.8259 246.1864 0042434 81.9166 278.6819 14.15391695126213

Live tracking on map

Real-time ground track for satellite CZ-6A DEB.

In-orbit conjunctions

A list of the most updated potential collisions computed for object CZ-6A DEB.

Target Orbit TCA Probability of collision Miss distance Type
CZ-6A DEB LEO 2025-02-15 21:49:48 0.0004742462 330.0 (m) DEBRIS
SL-3 R/B LEO 2024-10-10 14:50:14 0.0002429825 314.0 (m) ROCKET BODY
THORAD AGENA D DEB LEO 2024-07-22 16:16:35 0.0002563493 92.0 (m) DEBRIS

Associated space launch

Chinese satellite reported for atmospheric/ocean/environmental/spatial parameter research purposes, details TBD.

CZ-6A DEB was lifted into orbit during the mission ‘Long March 6A | Yunhai 3’, on board a Long March 6A space rocket.

The launch took place on Nov. 11, 2022, 10:52 p.m. from Launch Complex 9A.

For more information about the launch, click the button.

Launch to space Long March 6A | Yunhai 3
Long March 6A | Yunhai 3

Agency: N/A

Status: Launch Successful

Launch date: Nov. 11, 2022, 10:52 p.m. UTC

Rocket: Long March 6A

Launch pad: Launch Complex 9A

Location: Taiyuan Satellite Launch Center, People's Republic of China

...

Latest news about this satellite

There are no fresh news available about this satellite. Check back as we update our databases every day.


Newsletter sign-up

Weekly statistics, charts and insights to help you stay on top of the space industry.